KD9SK-13 Weather Reports


time (UTC)temp
C
wind
direction
speed
KPH
gust
KPH
rain 1hr
cm
rain 24hr
cm
rain mn
cm
humidity
%
barometer
mb
20260505211003 23 134 1.6 4.8 0.00 0.00 0.00 90 1005.9
20260505210503 23 7 0.0 1.6 0.00 0.00 0.00 90 1006.3
20260505210002 23 56 0.0 0.0 0.00 0.00 0.00 91 1006.3
20260505205503 23 56 0.0 1.6 0.00 0.00 0.00 91 1006.1
20260505205002 22 109 0.0 0.0 0.00 0.00 0.00 92 1006.2
20260505204502 22 109 0.0 1.6 0.00 0.00 0.00 92 1006.0
20260505204003 22 109 1.6 1.6 0.00 0.00 0.00 92 1006.0
20260505203502 22 109 0.0 1.6 0.00 0.00 0.00 91 1006.2
20260505203002 22 114 0.0 0.0 0.00 0.00 0.00 91 1006.2
20260505202502 22 114 0.0 0.0 0.00 0.00 0.00 91 1006.2
20260505202002 22 114 0.0 0.0 0.00 0.00 0.00 90 1006.2
20260505201502 22 114 0.0 0.0 0.00 0.00 0.00 90 1006.4
20260505201002 22 114 0.0 1.6 0.00 0.00 0.00 89 1006.4
20260505200503 23 114 0.0 1.6 0.00 0.00 0.00 89 1006.4
20260505200002 23 203 0.0 3.2 0.00 0.00 0.00 89 1006.3
20260505195502 23 142 1.6 4.8 0.00 0.00 0.00 90 1006.2
20260505195002 23 257 1.6 4.8 0.00 0.00 0.00 90 1006.1
20260505194502 23 183 0.0 3.2 0.00 0.00 0.00 92 1005.8
20260505194002 22 123 1.6 3.2 0.00 0.00 0.00 93 1005.8
20260505193503 22 137 0.0 1.6 0.00 0.00 0.00 94 1005.9
20260505193002 22 137 0.0 1.6 0.00 0.00 0.00 95 1006.0
20260505192502 21 139 0.0 3.2 0.00 0.00 0.00 95 1006.1
20260505192002 21 129 1.6 3.2 0.00 0.00 0.00 95 1006.2
20260505191502 21 138 0.0 1.6 0.00 0.00 0.00 95 1006.5
20260505191002 21 136 0.0 1.6 0.00 0.00 0.00 95 1006.6
20260505190503 21 136 0.0 1.6 0.00 0.00 0.00 95 1006.7
20260505190002 21 134 0.0 1.6 0.00 0.00 0.00 95 1006.7
20260505185502 20 137 1.6 4.8 0.00 0.00 0.00 95 1006.7
20260505185002 20 204 0.0 3.2 0.00 0.00 0.00 95 1006.7
20260505184502 20 150 1.6 3.2 0.00 0.00 0.00 95 1006.7
20260505183502 20 139 0.0 1.6 0.00 0.00 0.00 95 1006.7
20260505183003 20 138 1.6 3.2 0.00 0.00 0.00 95 1006.8
20260505182502 20 230 0.0 1.6 0.00 0.00 0.00 95 1006.9
20260505182002 20 212 0.0 0.0 0.00 0.00 0.00 95 1006.9
20260505181502 20 212 0.0 0.0 0.00 0.00 0.00 95 1006.9
20260505181002 20 215 0.0 0.0 0.00 0.00 0.00 95 1006.9
20260505180502 20 200 0.0 1.6 0.00 0.00 0.00 95 1007.0
20260505180002 20 205 0.0 1.6 0.00 0.00 0.00 95 1007.1
20260505175501 20 266 0.0 3.2 0.00 0.00 0.00 95 1007.1
20260505175002 20 166 0.0 1.6 0.00 0.00 0.00 95 1007.2
20260505174502 20 166 0.0 0.0 0.00 0.00 0.00 95 1007.2
20260505174001 20 166 0.0 1.6 0.00 0.00 0.00 95 1007.4
20260505173503 20 260 0.0 3.2 0.00 0.00 0.00 95 1007.3
20260505173002 20 149 0.0 1.6 0.00 0.00 0.00 95 1007.2
20260505172503 20 131 0.0 1.6 0.00 0.00 0.00 95 1007.2
20260505172002 20 295 0.0 1.6 0.00 0.00 0.00 95 1007.2
20260505171502 20 295 0.0 1.6 0.00 0.00 0.00 95 1007.4
20260505171003 20 295 0.0 1.6 0.00 0.00 0.00 95 1007.5
20260505165502 19 133 0.0 1.6 0.00 0.00 0.00 95 1007.5
20260505165002 19 133 0.0 0.0 0.00 0.00 0.00 95 1007.6
20260505164503 19 133 0.0 1.6 0.00 0.00 0.00 95 1007.7
20260505164002 19 133 0.0 1.6 0.00 0.00 0.00 95 1007.7
20260505163502 19 136 0.0 1.6 0.00 0.00 0.00 95 1007.7
20260505163002 19 148 0.0 0.0 0.00 0.00 0.00 95 1007.6
20260505162003 19 82 0.0 4.8 0.00 0.00 0.00 95 1007.6
20260505161502 19 136 1.6 3.2 0.00 0.00 0.00 95 1007.5
20260505161002 19 143 0.0 0.0 0.00 0.00 0.00 95 1007.6
20260505160502 19 143 0.0 1.6 0.00 0.00 0.00 95 1007.6
20260505153002 19 145 0.0 0.0 0.00 0.00 0.00 94 1007.8
20260505151502 19 124 0.0 3.2 0.00 0.00 0.00 94 1007.9
20260505151002 18 132 0.0 1.6 0.00 0.00 0.00 94 1007.9
20260505140502 18 148 0.0 0.0 0.00 0.00 0.00 94 1007.7
20260505125002 18 150 0.0 1.6 0.00 0.00 0.00 90 1007.4
20260505124502 18 150 0.0 3.2 0.00 0.00 0.00 90 1007.4
20260505124002 18 297 0.0 0.0 0.00 0.00 0.00 90 1007.4
20260505123503 18 136 0.0 1.6 0.00 0.00 0.00 90 1007.3
20260505123003 18 136 0.0 1.6 0.00 0.00 0.00 89 1007.3
20260505122502 18 135 0.0 4.8 0.00 0.00 0.00 89 1007.3
20260505122003 18 135 0.0 0.0 0.00 0.00 0.00 89 1007.2
20260505121502 18 135 0.0 0.0 0.00 0.00 0.00 89 1007.2
20260505121002 18 135 0.0 0.0 0.00 0.00 0.00 88 1007.0
20260505120502 18 135 0.0 3.2 0.00 0.00 0.00 88 1007.0
20260505120002 18 137 1.6 3.2 0.00 0.00 0.00 88 1006.9
20260505115503 18 128 0.0 1.6 0.00 0.00 0.00 88 1006.7
20260505115002 18 128 0.0 1.6 0.00 0.00 0.00 87 1006.7
20260505114503 18 128 0.0 1.6 0.00 0.00 0.00 87 1006.6
20260505114003 18 128 0.0 1.6 0.00 0.00 0.00 87 1006.5
20260505113002 18 153 0.0 3.2 0.00 0.00 0.00 86 1006.4
20260505112503 18 115 0.0 4.8 0.00 0.00 0.00 86 1006.3
20260505111503 18 162 0.0 3.2 0.00 0.00 0.00 86 1006.4
20260505111002 18 141 1.6 3.2 0.00 0.00 0.00 85 1006.2
20260505110503 18 142 0.0 4.8 0.00 0.00 0.00 85 1006.3
20260505102003 18 183 0.0 1.6 0.00 0.00 0.00 84 1006.2
20260505101502 18 152 1.6 4.8 0.00 0.00 0.00 83 1006.3
20260505101003 18 129 0.0 0.0 0.00 0.00 0.00 83 1006.3
20260505100504 18 137 0.0 3.2 0.00 0.00 0.00 83 1006.3
20260505100003 18 130 0.0 1.6 0.00 0.00 0.00 83 1006.3
20260505095502 19 148 1.6 3.2 0.00 0.00 0.00 82 1006.2
20260505095002 19 194 0.0 3.2 0.00 0.00 0.00 82 1006.3
20260505094503 19 122 1.6 4.8 0.00 0.00 0.00 82 1006.3
20260505094003 19 134 1.6 4.8 0.00 0.00 0.00 82 1006.3
20260505093003 19 133 1.6 3.2 0.00 0.00 0.00 81 1006.2
20260505092502 19 164 1.6 3.2 0.00 0.00 0.00 81 1006.2
20260505092003 19 169 1.6 4.8 0.00 0.00 0.00 81 1006.3
20260505091502 19 155 1.6 3.2 0.00 0.00 0.00 80 1006.3
20260505091002 19 210 1.6 4.8 0.00 0.00 0.00 80 1006.5
20260505090002 19 135 1.6 4.8 0.00 0.00 0.00 80 1006.6
20260505085503 19 135 1.6 4.8 0.00 0.00 0.00 79 1006.5
20260505085003 19 153 1.6 4.8 0.00 0.00 0.00 79 1006.5
20260505084503 19 164 1.6 4.8 0.00 0.00 0.00 79 1006.6
20260505084003 19 151 1.6 4.8 0.00 0.00 0.00 79 1006.7
20260505083503 19 195 1.6 4.8 0.00 0.00 0.00 79 1006.9
20260505083003 19 293 1.6 3.2 0.00 0.00 0.00 79 1006.9
20260505082503 19 252 1.6 4.8 0.00 0.00 0.00 78 1006.9
20260505082003 19 144 1.6 3.2 0.00 0.00 0.00 78 1007.0
20260505081502 19 141 1.6 4.8 0.00 0.00 0.00 78 1007.1
20260505081002 19 147 1.6 3.2 0.00 0.00 0.00 78 1007.0
20260505080503 19 169 0.0 0.0 0.00 0.00 0.00 78 1007.1
20260505080003 19 152 0.0 3.2 0.00 0.00 0.00 77 1007.2
20260505075503 19 142 1.6 3.2 0.00 0.00 0.00 77 1007.2
20260505075003 19 155 1.6 3.2 0.00 0.00 0.00 77 1007.2
20260505074502 19 165 0.0 3.2 0.00 0.00 0.00 77 1007.2
20260505073502 19 120 1.6 4.8 0.00 0.00 0.00 77 1007.2
20260505073002 19 306 0.0 3.2 0.00 0.00 0.00 77 1007.3
20260505072502 19 137 1.6 3.2 0.00 0.00 0.00 77 1007.2
20260505071503 19 146 1.6 3.2 0.00 0.00 0.00 76 1007.5
20260505070003 19 124 0.0 1.6 0.00 0.00 0.00 75 1007.7
20260505065502 19 131 0.0 1.6 0.00 0.00 0.00 74 1007.8
20260505065004 19 155 1.6 3.2 0.00 0.00 0.00 74 1007.8
20260505064502 19 147 1.6 3.2 0.00 0.00 0.00 74 1007.9
20260505064003 19 150 0.0 3.2 0.00 0.00 0.00 73 1007.9
20260505063503 19 207 1.6 8.0 0.00 0.00 0.00 73 1008.1
20260505063003 19 152 1.6 4.8 0.00 0.00 0.00 73 1008.1
20260505062003 19 221 0.0 3.2 0.00 0.00 0.00 73 1008.3
20260505061502 19 154 1.6 3.2 0.00 0.00 0.00 73 1008.3
20260505061003 19 138 0.0 4.8 0.00 0.00 0.00 73 1008.4
20260505060502 19 27 0.0 3.2 0.00 0.00 0.00 73 1008.4
20260505055503 19 198 1.6 3.2 0.00 0.00 0.00 72 1008.5
20260505055003 19 138 0.0 1.6 0.00 0.00 0.00 71 1008.5
20260505054503 19 52 0.0 0.0 0.00 0.00 0.00 71 1008.7
20260505054003 19 105 0.0 1.6 0.00 0.00 0.00 71 1008.7
20260505053503 19 105 0.0 3.2 0.00 0.00 0.00 71 1008.8
20260505053003 19 213 0.0 1.6 0.00 0.00 0.00 70 1008.8
20260505052502 19 251 0.0 4.8 0.00 0.00 0.00 70 1008.8
20260505052003 19 173 0.0 1.6 0.00 0.00 0.00 70 1008.9
20260505051502 19 171 0.0 3.2 0.00 0.00 0.00 69 1008.7
20260505051002 19 147 0.0 1.6 0.00 0.00 0.00 69 1008.8
20260505050503 19 147 0.0 1.6 0.00 0.00 0.00 70 1008.9
20260505041502 20 73 0.0 1.6 0.00 0.00 0.00 67 1009.1
20260505041003 20 73 0.0 1.6 0.00 0.00 0.00 67 1009.1
20260505040503 20 141 0.0 1.6 0.00 0.00 0.00 68 1009.2
20260505040004 20 141 0.0 0.0 0.00 0.00 0.00 67 1009.3
20260505035504 20 141 0.0 1.6 0.00 0.00 0.00 67 1009.3
20260505035003 20 141 0.0 0.0 0.00 0.00 0.00 67 1009.3
20260505034502 20 141 0.0 1.6 0.00 0.00 0.00 66 1009.3
20260505034003 20 141 0.0 0.0 0.00 0.00 0.00 66 1009.3
20260505033504 20 141 0.0 0.0 0.00 0.00 0.00 66 1009.3
20260505033003 20 147 0.0 0.0 0.00 0.00 0.00 66 1009.4
20260505032502 20 147 0.0 0.0 0.00 0.00 0.00 65 1009.4
20260505032002 20 147 0.0 1.6 0.00 0.00 0.00 65 1009.4
20260505031502 20 147 0.0 1.6 0.00 0.00 0.00 65 1009.3
20260505031003 20 297 0.0 1.6 0.00 0.00 0.00 65 1009.3
20260505030503 20 292 0.0 1.6 0.00 0.00 0.00 65 1009.4
20260505030004 20 292 0.0 1.6 0.00 0.00 0.00 65 1009.3
20260505024503 20 133 0.0 3.2 0.00 0.00 0.00 66 1009.0
20260505024003 21 133 0.0 1.6 0.00 0.00 0.00 66 1009.0
20260505023503 21 133 1.6 3.2 0.00 0.00 0.00 66 1009.0
20260505022502 20 142 0.0 1.6 0.00 0.00 0.00 66 1008.7
20260505022003 21 131 0.0 3.2 0.00 0.00 0.00 66 1008.5
20260505021003 21 134 0.0 1.6 0.00 0.00 0.00 66 1008.6
20260505020502 20 132 0.0 0.0 0.00 0.00 0.00 66 1008.6
20260505015503 20 132 0.0 1.6 0.00 0.00 0.00 66 1008.6
20260505015003 21 132 0.0 1.6 0.00 0.00 0.00 67 1008.4
20260505014003 21 132 0.0 0.0 0.00 0.00 0.00 66 1008.3
20260505013503 21 132 0.0 0.0 0.00 0.00 0.00 66 1008.3
20260505012503 21 132 0.0 0.0 0.00 0.00 0.00 65 1008.4
20260505012002 21 132 0.0 0.0 0.00 0.00 0.00 65 1008.3
20260505011503 21 132 0.0 0.0 0.00 0.00 0.00 63 1008.2
20260505011003 21 132 0.0 1.6 0.00 0.00 0.00 63 1008.2
20260505010502 22 139 0.0 1.6 0.00 0.00 0.00 63 1007.9
20260505010003 22 139 0.0 0.0 0.00 0.00 0.00 62 1008.2
20260505005502 22 139 0.0 0.0 0.00 0.00 0.00 63 1008.1
20260505004002 22 139 0.0 1.6 0.00 0.00 0.00 61 1008.1
20260505003502 23 139 0.0 1.6 0.00 0.00 0.00 60 1008.2
20260505002503 23 132 0.0 1.6 0.00 0.00 0.00 59 1008.3
20260505001503 23 132 0.0 1.6 0.00 0.00 0.00 58 1008.3
20260505001003 23 132 0.0 1.6 0.00 0.00 0.00 57 1008.2
20260505000503 23 132 1.6 3.2 0.00 0.00 0.00 59 1008.3
20260505000003 23 142 0.0 3.2 0.00 0.00 0.00 57 1008.3
20260504235502 23 150 0.0 1.6 0.00 0.00 0.00 57 1008.4
20260504235003 23 137 1.6 3.2 0.00 0.00 0.00 58 1008.4
20260504234003 24 6 0.0 0.0 0.00 0.00 0.00 57 1008.4
20260504233503 24 5 0.0 0.0 0.00 0.00 0.00 57 1008.5
20260504233004 24 6 0.0 1.6 0.00 0.00 0.00 56 1008.7
20260504232502 24 5 0.0 1.6 0.00 0.00 0.00 55 1008.7
20260504232003 25 275 0.0 1.6 0.00 0.00 0.00 54 1008.7
20260504231503 25 168 0.0 3.2 0.00 0.00 0.00 54 1008.7
20260504231003 25 149 0.0 3.2 0.00 0.00 0.00 54 1008.7
20260504230503 25 274 0.0 1.6 0.00 0.00 0.00 54 1008.8
20260504230003 25 133 1.6 3.2 0.00 0.00 0.00 53 1009.0
20260504225502 25 212 0.0 3.2 0.00 0.00 0.00 53 1009.1
20260504225002 25 145 0.0 3.2 0.00 0.00 0.00 53 1009.1
20260504224503 25 199 0.0 4.8 0.00 0.00 0.00 53 1009.1
20260504224003 25 210 0.0 1.6 0.00 0.00 0.00 52 1009.1
20260504223503 25 215 0.0 3.2 0.00 0.00 0.00 52 1009.1
20260504223004 25 214 1.6 9.7 0.00 0.00 0.00 52 1009.2
20260504222503 25 250 0.0 3.2 0.00 0.00 0.00 52 1009.2
20260504222003 25 264 1.6 4.8 0.00 0.00 0.00 51 1009.2
20260504221503 25 162 1.6 4.8 0.00 0.00 0.00 51 1009.3
20260504221003 25 248 1.6 4.8 0.00 0.00 0.00 49 1009.4
20260504220503 25 232 0.0 3.2 0.00 0.00 0.00 50 1009.4
20260504215502 26 170 0.0 4.8 0.00 0.00 0.00 51 1009.5
20260504215004 25 167 1.6 4.8 0.00 0.00 0.00 50 1009.6
20260504214003 25 145 3.2 8.0 0.00 0.00 0.00 51 1009.7
20260504213503 25 276 0.0 3.2 0.00 0.00 0.00 50 1009.8
20260504213002 26 178 3.2 9.7 0.00 0.00 0.00 49 1009.8
20260504212003 26 194 1.6 4.8 0.00 0.00 0.00 51 1009.9
20260504211503 26 136 1.6 4.8 0.00 0.00 0.00 50 1010.1